This is the latest recevied weather packets stored in our database for station/object OH2EGI-2. If no packets are shown the sender has not sent any weather packets the latest 10 day(s).
| Time | Temp. | Humidity | Pressure | Rain* | Wind** | Luminosity | Snow |
|---|---|---|---|---|---|---|---|
| 1777738907 | 21.67° C | 31% | 1000 hPa | 0 mm | - | - | - |
| 1777738607 | 23.33° C | 29% | 1000.1 hPa | 0 mm | - | - | - |
| 1777738307 | 25° C | 27% | 1000.1 hPa | 0 mm | - | - | - |
| 1777738007 | 26.67° C | 26% | 1000 hPa | 0 mm | - | - | - |
| 1777737707 | 26.67° C | 26% | 999.9 hPa | 0 mm | - | - | - |
| 1777737407 | 26.67° C | 26% | 1000.2 hPa | 0 mm | - | - | - |
| 1777737107 | 27.22° C | 26% | 1000.1 hPa | 0 mm | - | - | - |
| 1777736807 | 27.78° C | 24% | 1000.1 hPa | 0 mm | - | - | - |
| 1777736507 | 27.78° C | 25% | 1000.2 hPa | 0 mm | - | - | - |
| 1777736207 | 28.33° C | 25% | 1000.2 hPa | 0 mm | - | - | - |
| 1777735907 | 28.33° C | 26% | 1000.3 hPa | 0 mm | - | - | - |
| 1777735607 | 28.33° C | 26% | 1000.2 hPa | 0 mm | - | - | - |
| 1777735307 | 27.78° C | 26% | 1000.2 hPa | 0 mm | - | - | - |
| 1777735007 | 28.89° C | 26% | 1000.3 hPa | 0 mm | - | - | - |
| 1777734707 | 28.89° C | 26% | 1000.3 hPa | 0 mm | - | - | - |
| 1777734407 | 28.89° C | 26% | 1000.3 hPa | 0 mm | - | - | - |
| 1777734107 | 28.89° C | 26% | 1000.3 hPa | 0 mm | - | - | - |
| 1777733807 | 28.33° C | 27% | 1000.3 hPa | 0 mm | - | - | - |
| 1777733507 | 28.33° C | 27% | 1000.4 hPa | 0 mm | - | - | - |
| 1777733207 | 27.78° C | 28% | 1000.4 hPa | 0 mm | - | - | - |
| 1777732907 | 27.22° C | 29% | 1000.3 hPa | 0 mm | - | - | - |
| 1777732607 | 26.11° C | 31% | 1000.3 hPa | 0 mm | - | - | - |
| 1777732307 | 23.89° C | 33% | 1000.5 hPa | 0 mm | - | - | - |
| 1777732007 | 22.78° C | 33% | 1000.3 hPa | 0 mm | - | - | - |
| 1777731707 | 23.89° C | 33% | 1000.4 hPa | 0 mm | - | - | - |
* Rain latest hour (hover to see other rain measurements)
** Current wind speed in m/s (hover to see current wind gust speed)